7 * 24
多渠道服务支持
STARLINK-37414(NORAD编号69176)是SpaceX星链(Starlink)互联网星座中的一颗低轨通信卫星,属于星链项目批量部署的组网卫星之一,主要为全球提供低成本、高速的天基互联网接入服务。 该卫星运行在近地轨道,由SpaceX通过猎鹰9号火箭发射入轨,延续了星链卫星标准化设计,助力扩展星座覆盖范围,服务偏远地区、移动场景等网络需求,是星链全球通信网络基础设施的组成部分,目前处于轨道运行状态,参与星座组网运营。
美国
(US)
| 数据来源 | 国际轨道数据 |
| 星历时间: | 2026-05-30T12:00:02+0800 15小时前 查看轨道信息 |
| 半长轴: | 6662.35km |
| 偏心率: | 0.0000968 |
| 轨道倾角: | 53.159° |
| 近地点辐角 | 70.704° |
| 升交点赤经 | 241.998° |
| 平近点角 | 144.695° |
| 近地点: | 283.568km |
| 远地点: | 284.858km |
| 周期: | 90.199分钟 |
| 每日圈数: | 15.964734 |